• In United Kingdom
  • List of Countries
  • For 7 days
  • Water Temperature
  • Satellite Maps
  • Weather Map
  • Weather Widgets
  • user-avatar
    Login

    Hourly Weather Malanje

    Today, 26 June, Monday

    Time Temperature Precipitation Wind Pressure Humidity
    00:00 +18°C° 0 mm 1 mps 665 mmHg 56%
    01:00 +16°C° 0 mm 1 mps 664 mmHg 70%
    02:00 +16°C° 0 mm 1 mps 664 mmHg 74%
    03:00 +15°C° 0 mm 1 mps 664 mmHg 78%
    04:00 +15°C° 0 mm 1 mps 664 mmHg 82%
    05:00 +16°C° 0 mm 1 mps 665 mmHg 79%
    06:00 +18°C° 0 mm 1 mps 665 mmHg 75%
    07:00 +17°C° 0 mm 0 mps 666 mmHg 71%
    08:00 +22°C° 0 mm 1 mps 666 mmHg 58%
    09:00 +26°C° 0 mm 2 mps 667 mmHg 44%
    10:00 +29°C° 0 mm 2 mps 668 mmHg 31%
    11:00 +31°C° 0 mm 2 mps 668 mmHg 28%
    12:00 +33°C° 0 mm 3 mps 668 mmHg 24%
    13:00 +34°C° 0 mm 3 mps 667 mmHg 21%
    14:00 +34°C° 0 mm 3 mps 667 mmHg 21%
    15:00 +34°C° 0 mm 3 mps 666 mmHg 21%
    16:00 +34°C° 0 mm 2 mps 666 mmHg 21%
    17:00 +30°C° 0 mm 2 mps 665 mmHg 25%
    18:00 +27°C° 0 mm 2 mps 665 mmHg 30%
    19:00 +24°C° 0 mm 2 mps 665 mmHg 34%
    20:00 +24°C° 0 mm 2 mps 665 mmHg 36%
    21:00 +23°C° 0 mm 1 mps 666 mmHg 37%
    22:00 +22°C° 0 mm 1 mps 666 mmHg 39%
    23:00 +22°C° 0 mm 1 mps 666 mmHg 43%

    Tomorrow, 27 June, Tuesday

    Time Temperature Precipitation Wind Pressure Humidity
    00:00 +21°C° 0 mm 1 mps 666 mmHg 47%
    01:00 +20°C° 0 mm 1 mps 666 mmHg 51%
    02:00 +20°C° 0 mm 1 mps 665 mmHg 56%
    03:00 +19°C° 0 mm 1 mps 665 mmHg 61%
    04:00 +18°C° 0 mm 1 mps 665 mmHg 67%
    05:00 +18°C° 0 mm 1 mps 665 mmHg 64%
    06:00 +19°C° 0 mm 1 mps 666 mmHg 61%
    07:00 +20°C° 0 mm 1 mps 666 mmHg 58%
    08:00 +23°C° 0 mm 2 mps 667 mmHg 47%
    09:00 +26°C° 0 mm 3 mps 668 mmHg 36%
    10:00 +30°C° 0 mm 4 mps 669 mmHg 25%
    11:00 +31°C° 0 mm 3 mps 669 mmHg 23%
    12:00 +33°C° 0 mm 3 mps 668 mmHg 21%
    13:00 +34°C° 0 mm 3 mps 668 mmHg 19%
    14:00 +34°C° 0 mm 3 mps 667 mmHg 18%
    15:00 +34°C° 0 mm 2 mps 667 mmHg 18%
    16:00 +34°C° 0 mm 2 mps 666 mmHg 17%
    17:00 +29°C° 0 mm 2 mps 666 mmHg 22%
    18:00 +26°C° 0 mm 1 mps 665 mmHg 27%
    19:00 +23°C° 0 mm 1 mps 665 mmHg 32%
    20:00 +22°C° 0 mm 1 mps 665 mmHg 36%
    21:00 +21°C° 0 mm 1 mps 666 mmHg 40%
    22:00 +20°C° 0 mm 1 mps 666 mmHg 44%
    23:00 +19°C° 0 mm 1 mps 666 mmHg 54%

    Day after tomorrow, 28 June, Wednesday

    Time Temperature Precipitation Wind Pressure Humidity
    00:00 +18°C° 0 mm 1 mps 665 mmHg 64%
    01:00 +16°C° 0 mm 1 mps 665 mmHg 74%
    02:00 +16°C° 0 mm 1 mps 665 mmHg 77%
    03:00 +15°C° 0 mm 1 mps 664 mmHg 81%
    04:00 +15°C° 0 mm 1 mps 664 mmHg 85%
    05:00 +16°C° 0 mm 1 mps 665 mmHg 79%
    06:00 +18°C° 0 mm 1 mps 665 mmHg 73%
    07:00 +19°C° 0 mm 1 mps 666 mmHg 68%
    08:00 +21°C° 0 mm 2 mps 667 mmHg 53%
    09:00 +25°C° 0 mm 3 mps 668 mmHg 39%
    10:00 +29°C° 0 mm 4 mps 669 mmHg 24%
    11:00 +30°C° 0 mm 4 mps 668 mmHg 22%
    12:00 +32°C° 0 mm 4 mps 668 mmHg 19%
    13:00 +34°C° 0 mm 4 mps 667 mmHg 17%
    14:00 +33°C° 0 mm 3 mps 667 mmHg 17%
    15:00 +33°C° 0 mm 3 mps 666 mmHg 17%
    16:00 +33°C° 0 mm 3 mps 666 mmHg 17%
    17:00 +29°C° 0 mm 2 mps 665 mmHg 22%
    18:00 +25°C° 0 mm 2 mps 665 mmHg 28%
    19:00 +21°C° 0 mm 1 mps 664 mmHg 33%
    20:00 +21°C° 0 mm 1 mps 664 mmHg 34%
    21:00 +20°C° 0 mm 1 mps 665 mmHg 36%
    22:00 +20°C° 0 mm 1 mps 665 mmHg 37%
    23:00 +19°C° 0 mm 1 mps 665 mmHg 43%

    29 June, Thursday

    Time Temperature Precipitation Wind Pressure Humidity
    00:00 +18°C° 0 mm 1 mps 665 mmHg 48%
    01:00 +16°C° 0 mm 1 mps 664 mmHg 54%
    02:00 +16°C° 0 mm 1 mps 664 mmHg 57%
    03:00 +15°C° 0 mm 1 mps 664 mmHg 59%
    04:00 +14°C° 0 mm 1 mps 664 mmHg 62%
    05:00 +15°C° 0 mm 1 mps 665 mmHg 57%
    06:00 +16°C° 0 mm 1 mps 666 mmHg 52%
    07:00 +16°C° 0 mm 2 mps 666 mmHg 47%
    08:00 +20°C° 0 mm 2 mps 667 mmHg 37%
    09:00 +24°C° 0 mm 3 mps 668 mmHg 28%
    10:00 +28°C° 0 mm 4 mps 669 mmHg 19%
    11:00 +30°C° 0 mm 4 mps 668 mmHg 17%
    12:00 +32°C° 0 mm 4 mps 668 mmHg 16%
    13:00 +33°C° 0 mm 3 mps 667 mmHg 14%
    14:00 +33°C° 0 mm 3 mps 667 mmHg 14%
    15:00 +33°C° 0 mm 3 mps 666 mmHg 13%
    16:00 +33°C° 0 mm 3 mps 666 mmHg 13%
    17:00 +29°C° 0 mm 2 mps 666 mmHg 17%
    18:00 +25°C° 0 mm 2 mps 666 mmHg 20%
    19:00 +21°C° 0 mm 2 mps 665 mmHg 24%
    20:00 +20°C° 0 mm 2 mps 666 mmHg 26%
    21:00 +19°C° 0 mm 2 mps 666 mmHg 27%
    22:00 +18°C° 0 mm 2 mps 666 mmHg 29%
    23:00 +17°C° 0 mm 2 mps 666 mmHg 40%

    30 June, Friday

    Time Temperature Precipitation Wind Pressure Humidity
    00:00 +16°C° 0 mm 2 mps 665 mmHg 52%
    01:00 +15°C° 0 mm 1 mps 665 mmHg 63%
    02:00 +15°C° 0 mm 1 mps 665 mmHg 65%
    03:00 +14°C° 0 mm 1 mps 665 mmHg 68%
    04:00 +14°C° 0 mm 1 mps 665 mmHg 70%
    05:00 +14°C° 0 mm 1 mps 665 mmHg 64%
    06:00 +15°C° 0 mm 1 mps 666 mmHg 59%
    07:00 +15°C° 0 mm 1 mps 667 mmHg 53%
    08:00 +19°C° 0 mm 2 mps 668 mmHg 42%
    09:00 +24°C° 0 mm 3 mps 668 mmHg 32%
    10:00 +28°C° 0 mm 3 mps 669 mmHg 21%
    11:00 +30°C° 0 mm 3 mps 669 mmHg 18%
    12:00 +31°C° 0 mm 3 mps 668 mmHg 16%
    13:00 +34°C° 0 mm 2 mps 668 mmHg 13%
    14:00 +34°C° 0 mm 2 mps 667 mmHg 13%
    15:00 +32°C° 0 mm 2 mps 667 mmHg 13%
    16:00 +32°C° 0 mm 1 mps 666 mmHg 13%
    17:00 +29°C° 0 mm 1 mps 666 mmHg 17%
    18:00 +25°C° 0 mm 1 mps 666 mmHg 21%
    19:00 +22°C° 0 mm 1 mps 665 mmHg 24%
    20:00 +21°C° 0 mm 1 mps 665 mmHg 29%
    21:00 +20°C° 0 mm 1 mps 665 mmHg 33%
    22:00 +19°C° 0 mm 1 mps 665 mmHg 37%
    23:00 +18°C° 0 mm 1 mps 665 mmHg 47%

    1 July, Saturday

    Time Temperature Precipitation Wind Pressure Humidity
    00:00 +16°C° 0 mm 1 mps 665 mmHg 57%
    01:00 +15°C° 0 mm 1 mps 665 mmHg 68%
    02:00 +15°C° 0 mm 1 mps 665 mmHg 67%
    03:00 +15°C° 0 mm 1 mps 665 mmHg 67%
    04:00 +14°C° 0 mm 1 mps 664 mmHg 66%
    05:00 +15°C° 0 mm 1 mps 665 mmHg 58%
    06:00 +16°C° 0 mm 2 mps 666 mmHg 50%
    07:00 +16°C° 0 mm 2 mps 666 mmHg 42%
    08:00 +20°C° 0 mm 2 mps 667 mmHg 35%
    09:00 +25°C° 0 mm 3 mps 668 mmHg 28%
    10:00 +28°C° 0 mm 3 mps 669 mmHg 21%
    11:00 +30°C° 0 mm 3 mps 668 mmHg 19%
    12:00 +31°C° 0 mm 3 mps 668 mmHg 16%
    13:00 +34°C° 0 mm 3 mps 667 mmHg 14%
    14:00 +34°C° 0 mm 2 mps 667 mmHg 14%
    15:00 +34°C° 0 mm 2 mps 666 mmHg 13%
    16:00 +34°C° 0 mm 2 mps 666 mmHg 13%
    17:00 +29°C° 0 mm 2 mps 665 mmHg 17%
    18:00 +25°C° 0 mm 2 mps 665 mmHg 20%
    19:00 +22°C° 0 mm 1 mps 665 mmHg 24%
    20:00 +20°C° 0 mm 2 mps 665 mmHg 27%
    21:00 +20°C° 0 mm 2 mps 665 mmHg 30%
    22:00 +19°C° 0 mm 2 mps 665 mmHg 32%
    23:00 +18°C° 0 mm 2 mps 665 mmHg 43%
    Show more